weather.gov     
National Weather Service

Regional Weather Roundup
NWS Homepage
This page is being discontinued on March 12, 2014.
The same data is available at this site. Please update your bookmarks.
Thank you, and we apologize for the inconvenience.
Please send an email to SR-SRH.Webmaster@noaa.gov with any concerns.


Current Version
Previous Version:    01  02  03  04  05  06  07  08  09  10  11  12  13  14  15  16  17  18  19  20  21  22  23  24  25  26  27  28  29  30  
   31  32  33  34  35  36  37  38  39  40  41  42  43  44  45  46  47  48  49  50  51  52  53  54  55  56  57  58  59  60  
[Printable]
013
ASHW40 PHFO 211230
RWRHI

WEATHER ROUNDUP FOR HAWAII
NATIONAL WEATHER SERVICE HONOLULU HI
200 AM HST MON APR 21 2014

THIS IS AN AUTOMATED REPORT THAT HAS NOT BEEN QUALITY CONTROLLED.

NOTE..."FAIR" INDICATES FEW OR NO CLOUDS BELOW 12,000 FEET WITH NO
SIGNIFICANT WEATHER AND/OR OBSTRUCTIONS TO VISIBILITY.

* - THESE SITES REPORT LIMITED FIELDS

HIZ001>004-211300-
KAUAI-NIIHAU-

CITY           SKY/WX    TMP DP  RH WIND       PRES   REMARKS
LIHUE APT      CLOUDY    73  68  83 NE20G26   30.18S
PORT ALLEN*      N/A     72 N/A N/A E16G23      N/A
POIPU*           N/A     73 N/A N/A NE10G22     N/A
PRINCEVILLE*   NOT AVBL
KOKOLE POINT*  NOT AVBL
MOLOAA DAIRY*  NOT AVBL
WAIMEA HTS*    NOT AVBL
PUU OPAE*      NOT AVBL
PUU LUA*       NOT AVBL
MAKAHA RIDGE*  NOT AVBL
$$

HIZ005>011-211300-
OAHU-

CITY           SKY/WX    TMP DP  RH WIND       PRES   REMARKS
HONOLULU       MOCLDY    75  65  70 NE15G22   30.13F
KALAELOA       MOCLDY    72  65  78 VRB3      30.14F
KANEOHE MCB    PTCLDY   N/A N/A N/A NE9G20    30.15F
WHEELER FIELD  FAIR      68  64  88 VRB1      30.14F
BELLOWS*       NOT AVBL
KAHUKU*          N/A    N/A N/A N/A NE9G17      N/A
WHEELER*       NOT AVBL
WAIANAE HARBOR NOT AVBL
DILLINGHAM*      N/A     70  68  94 E3          N/A
KAHUKU TRN*      N/A     68  64  88 E12G22      N/A
KAWAILOA*      NOT AVBL
KII*             N/A     73  68  83 E18G26      N/A
MAKUA RANGE*     N/A     70  68  94 E9G20       N/A
OAHU FOREST NW NOT AVBL
SCHOFIELD BRK*   N/A     68  64  88 MISG        N/A
SCHOFIELD S*     N/A     64 N/A N/A CALM        N/A
WAIANAE VLY*   NOT AVBL
KUAOKALA*      NOT AVBL
HONOULIUULI*   NOT AVBL
MOKUOLOE IS*     N/A    N/A N/A N/A MISG        N/A
PALEHUA*       NOT AVBL
WAIAWA PHB*    NOT AVBL
$$

HIZ012>013-211300-
MOLOKAI-

CITY           SKY/WX    TMP DP  RH WIND       PRES   REMARKS
MOLOKAI AIRPT  LGT RAIN  70  69  97 NE9G20    30.14S
KALAUPAPA      NOT AVBL
MAKAPULAPAI*   NOT AVBL
MOLOKAI 1*     NOT AVBL
PUU ALII*        N/A     56  56  99 E3G15       N/A
$$

HIZ016-211300-
KAHOOLAWE-

CITY           SKY/WX    TMP DP  RH WIND       PRES   REMARKS
KAHOOLAWE*     NOT AVBL
HAKIOAWA*        N/A     69  63  80 MISG      30.22F
HONOKANAIA*      N/A     76  65  68 N8G33     30.13S
KANELOA*       NOT AVBL
KEALIALALO*      N/A    N/A N/A N/A SE18G31   30.38F
LUA MAKIKA*    NOT AVBL
$$

HIZ014>015-211300-
LANAI-

CITY           SKY/WX    TMP DP  RH WIND       PRES   REMARKS
LANAI CITY     FAIR      68  66  94 NE28G35   30.14F
LANAI 1*       NOT AVBL
$$

HIZ017>028-211300-
MAUI-

CITY           SKY/WX    TMP DP  RH WIND       PRES   REMARKS
KAHULUI        RAIN      72  68  88 NE12G21   30.12F FOG
KAPALUA-W MAUI NOT AVBL
HANA AIRPORT   NOT AVBL
HANA*            N/A     73 N/A N/A E8G16       N/A
HALEAKALA SUMM   N/A     39  34  81 E39G58      N/A  WCI  26
MAALAEA BAY*   NOT AVBL
HALEAKALA*     NOT AVBL
KAUPO GAP*     NOT AVBL
KULA 1*          N/A     51  43  74 SE5G16      N/A
$$

HIZ023>026-211300-
BIG ISLAND OF HAWAII COAST AND LOWER SLOPES-

CITY           SKY/WX    TMP DP  RH WIND       PRES   REMARKS
KAILUA KONA    LGT RAIN  74  63  68 E5        30.05F
HILO           CLOUDY    70  68  93 VRB3      30.13F
HONOKAA*       NOT AVBL
KAWAIHAE MWT*    N/A     77 N/A N/A SE14G24     N/A
KAWAIHAE*        N/A     77 N/A N/A E16G24      N/A
SOUTH POINT*     N/A     72 N/A N/A E22G30      N/A
UPOLU AIRPORT*   N/A    N/A N/A N/A E17G25      N/A
KAMUELA*       MOSUNNY   63  59  88 NE21      30.16F
HAKALAU*         N/A     50  50 100 W1          N/A
KALOKO-HONOKO*   N/A     72  61  68 NE5       30.04F
PALI 2*          N/A     64  57  77 VRB21G32    N/A
KEALAKOMO*       N/A     75  61  60 VRB17G30    N/A
KAUPULEHU*     NOT AVBL
KAPAPALA*        N/A     65  58  77 N3G10       N/A
LOWER KAHUKU*  NOT AVBL
PUHE CS*       NOT AVBL
PUHO CS*         N/A     72  58  62 E3          N/A
PTA KEAMUKU*     N/A     61  57  88 S9          N/A
WAIKOLOA*      NOT AVBL
$$

HIZ027>028-211300-
BIG ISLAND OF HAWAII INTERIOR AND SUMMMITS-

CITY           SKY/WX    TMP DP  RH WIND       PRES   REMARKS
BRADSHAW FIELD CLOUDY    52  50  93 SE20G31   30.37
MK VISITOR CEN NOT AVBL
MAUNA KEA*       N/A     30  16  55 E36         N/A  WCI  14
MAUNA LOA*       N/A    N/A N/A N/A MISG        N/A
MAUNA LOA 1*   NOT AVBL
PTA KIPUKA*      N/A     54  52  94 SW3G15      N/A
PTA RANGE 17*    N/A     55  50  82 E17G26      N/A
PTA WEST*        N/A     55  54  94 S3          N/A
NENE CABIN*    NOT AVBL
AHUMOA*        NOT AVBL
PTA PORTABLE*  NOT AVBL
PUU MALI*      NOT AVBL
$$

HIC003-211300-
NORTHWEST ISLANDS-

CITY           SKY/WX    TMP DP  RH WIND       PRES   REMARKS
MIDWAY ISLAND  MOCLDY    72  72 100 S7        30.21F
MIDWAY NOS*    NOT AVBL
FRENCH FRIGATE NOT AVBL
$$

PHZ110>124-180-211300-
BUOY REPORTS

STATION/POSITION TIME  TEMP    WIND        PRES    WAVE   SWELL
                       AIR SEA DIR/SP/G            HT/PER HT/DIR
                 (UTC) (F)     (DEG/KT/KT) (MB)    (FT/S) (FT/D)
BUOY 51001       NOT AVBL
BUOY 51101       1200   72 74   60/ 16/ 19 1023.5F   7/ 8   3/ 90
BUOY 51100       1200   73      60/ 19     1022.1F
BUOY 51003       1200   77 77   50/ 16/ 17 1018.9F   9/ 9   7
BUOY 51004       1200   77 79   70/ 19/ 25 1014.4F   8/ 9   5
BARBERS PT BUOY  NOT AVBL
WAIMEA BAY BUOY  1200      75                N/A     6/11   3/340
KAILUA BAY BUOY  1200      76                N/A     8/ 7   2
LANAI BUOY       1200      78                N/A     3/14   2/190
BARBERS PT 2     1200      76                N/A     4/14   2/190
PAUWELA MAUI     NOT AVBL
HILO             1200      78                N/A     7/12   3/340
KANEOHE BAY BUOY 1200      75                N/A     8/ 8   2/350
HANALEI KAUAI    1200      76                N/A     8/ 7   3/340
KAHULUI HARBOR   1200   73 76   60/ 14/ 19 1020.2F
HONOLULU HARBOR  1200   74      50/  5/  9 1020.3F
KILO NALU        NOT AVBL
HILO HARBOR      1200   73 77  320/ 10/ 11 1019.7F
MOKUOLOE         1200   75 76   70/ 14/ 17 1021.0F
NAWILIWILI       1200      76                N/A
WHOTS BUOY       NOT AVBL
BUOY 51028       NOT AVBL
$$

......................KEY........................................
  SKY/WX - SKY CONDITIONS/PRESENT WEATHER
  TMP    - TEMPERATURE IN FAHRENHEIT
  DWPT   - DEWPOINT IN FAHRENHEIT
  RH     - RELATIVE HUMIDITY IN PERCENT
  WIND   - DIRECTION AND SPEED /MPH FOR ISLANDS...KTS FOR BUOYS/
  PRES   - MEAN SEA LEVEL PRESSURE IN INCHES OF HG
  VSB    - VISIBILITY IN MILES
  HX     - HEAT INDEX
  WCI    - WIND CHILL INDEX
  VRB    - VARIABLE WIND DIRECTION
  N/A    - NOT AVAILABLE




U.S. Dept. of Commerce
NOAA National Weather Service
1325 East West Highway
Silver Spring, MD 20910
E-mail: w-nws.webmaster@noaa.gov
Page last modified: May 16, 2007
NATIONAL WEATHER SERVICE: for Safety, for Work, for Fun - FOR LIFE